EW8716 Weather Reports


time (UTC)temp
F
wind
direction
speed
knots
gust
knots
rain 1hr
in
rain 24hr
in
rain mn
in
humidity
%
barometer
mb
20260507232617 50 211 0.0 0.0 0.00 0.00 0.00 64 1010.1
20260507231833 50 117 0.0 0.0 0.00 0.00 0.00 64 1010.0
20260507231332 50 201 0.0 0.0 0.00 0.00 0.00 64 1010.1
20260507230832 50 225 0.0 0.0 0.00 0.00 0.00 64 1010.1
20260507230405 50 226 0.0 0.0 0.00 0.00 0.00 64 1010.0
20260507230355 50 219 0.0 0.0 0.00 0.00 0.00 64 1010.1
20260507225332 51 183 0.0 0.0 0.00 0.00 0.00 64 1009.9
20260507224832 51 209 0.0 0.0 0.00 0.00 0.00 64 1009.9
20260507224331 51 178 0.0 0.0 0.00 0.00 0.00 64 1010.0
20260507223833 51 203 0.0 0.0 0.00 0.00 0.00 64 1010.0
20260507223615 51 182 0.0 0.0 0.00 0.00 0.00 64 1010.0
20260507222829 51 191 0.0 0.0 0.00 0.00 0.00 64 1009.9
20260507222329 51 164 0.0 0.0 0.00 0.00 0.00 64 1010.0
20260507221827 51 182 0.0 0.0 0.00 0.00 0.00 65 1009.9
20260507221615 51 182 0.0 0.0 0.00 0.00 0.00 65 1009.9
20260507220828 51 215 0.0 0.0 0.00 0.00 0.00 65 1009.9
20260507220325 51 182 0.0 0.0 0.00 0.00 0.00 65 1009.9
20260507215825 51 220 0.0 0.0 0.00 0.00 0.00 65 1009.9
20260507215325 51 176 0.0 0.0 0.00 0.00 0.00 65 1009.9
20260507214825 51 123 0.0 0.0 0.00 0.00 0.00 65 1009.9
20260507214326 51 246 0.0 0.0 0.00 0.00 0.00 65 1009.8
20260507213823 52 175 0.0 0.0 0.00 0.00 0.00 65 1009.7
20260507213324 52 218 0.0 0.0 0.00 0.00 0.00 66 1009.7
20260507212823 52 222 0.0 0.0 0.00 0.00 0.00 66 1009.7
20260507212322 52 212 0.0 0.0 0.00 0.00 0.00 66 1009.7
20260507211822 52 229 0.0 0.0 0.00 0.00 0.00 66 1009.8
20260507211320 52 249 0.0 0.0 0.00 0.00 0.00 66 1009.8
20260507210819 52 110 0.0 0.0 0.00 0.00 0.00 66 1009.9
20260507210320 53 205 0.0 0.0 0.00 0.00 0.00 66 1009.9
20260507205821 53 213 0.0 0.0 0.00 0.00 0.00 66 1010.1
20260507205320 53 0 0.0 0.0 0.00 0.00 0.00 66 1010.1
20260507204821 53 227 0.0 0.0 0.00 0.00 0.00 66 1010.1
20260507204609 53 166 0.0 0.0 0.00 0.00 0.00 65 1010.1
20260507203819 53 126 0.0 0.0 0.00 0.00 0.00 65 1010.1
20260507203319 53 136 0.0 0.0 0.00 0.00 0.00 65 1010.1
20260507203148 53 210 0.0 0.0 0.00 0.00 0.00 65 1010.1
20260507203142 53 124 0.0 0.0 0.00 0.00 0.00 65 1010.1
20260507202108 53 196 0.0 0.0 0.00 0.00 0.00 65 1010.0
20260507201316 53 211 0.0 0.0 0.00 0.00 0.00 65 1010.0
20260507201107 54 142 0.0 0.0 0.00 0.00 0.00 65 1010.0
20260507200606 54 217 0.0 0.0 0.00 0.00 0.00 65 1009.9
20260507195816 54 202 0.0 0.0 0.00 0.00 0.00 65 1009.9
20260507195318 54 194 0.0 0.0 0.00 0.00 0.00 65 1009.9
20260507194811 54 220 0.0 0.0 0.00 0.00 0.00 65 1009.9
20260507194311 54 191 0.0 0.0 0.00 0.00 0.00 65 1009.9
20260507193811 54 210 0.0 0.0 0.00 0.00 0.00 65 1009.8
20260507193312 54 218 0.0 0.0 0.00 0.00 0.00 64 1009.8
20260507192810 55 221 0.0 0.0 0.00 0.00 0.00 64 1009.7
20260507192558 55 147 0.0 0.0 0.00 0.00 0.00 64 1009.7
20260507192057 55 198 0.0 0.0 0.00 0.00 0.00 63 1009.7
20260507191308 55 188 0.0 0.0 0.00 0.00 0.00 63 1009.7
20260507191057 55 194 0.0 0.0 0.00 0.00 0.00 62 1009.7
20260507190559 55 240 0.0 0.0 0.00 0.00 0.00 62 1009.7
20260507185808 55 209 0.0 0.0 0.00 0.00 0.00 62 1009.7
20260507185553 55 181 0.0 0.0 0.00 0.00 0.00 62 1009.7
20260507185058 56 242 0.0 0.0 0.00 0.00 0.00 61 1009.6
20260507184309 56 215 0.0 0.0 0.00 0.00 0.00 61 1009.6
20260507184054 56 197 0.0 0.0 0.00 0.00 0.00 61 1009.5
20260507183307 56 184 0.0 0.0 0.00 0.00 0.00 60 1009.6
20260507182807 56 269 0.0 0.0 0.00 0.00 0.00 60 1009.6
20260507182306 56 200 0.0 0.0 0.00 0.00 0.00 60 1009.5
20260507181804 56 238 0.0 0.0 0.00 0.00 0.00 59 1009.5
20260507181303 56 225 0.0 0.0 0.00 0.00 0.00 59 1009.4
20260507181051 56 178 0.0 0.0 0.00 0.00 0.00 59 1009.5
20260507180303 57 199 0.0 0.0 0.00 0.00 0.00 59 1009.4
20260507175803 57 90 0.0 0.0 0.00 0.00 0.00 58 1009.3
20260507175306 57 132 0.0 0.0 0.00 0.00 0.00 58 1009.3
20260507174804 57 85 0.0 0.0 0.00 0.00 0.00 57 1009.2
20260507174543 57 221 0.0 0.0 0.00 0.00 0.00 57 1009.2
20260507173834 58 194 0.0 0.0 0.00 0.00 0.00 55 1009.1
20260507173822 58 197 0.0 0.0 0.00 0.00 0.00 56 1009.1
20260507172756 59 191 0.0 0.0 0.00 0.00 0.00 54 1009.1
20260507172258 59 245 0.0 0.0 0.00 0.00 0.00 53 1009.3
20260507171757 59 239 0.0 0.0 0.00 0.00 0.00 53 1009.2
20260507171257 59 227 0.0 0.0 0.00 0.00 0.00 53 1009.2
20260507170757 60 214 0.0 0.0 0.00 0.00 0.00 53 1009.2
20260507170551 60 176 0.0 0.0 0.00 0.00 0.00 53 1009.3
20260507170040 60 201 0.0 0.0 0.00 0.00 0.00 52 1009.3
20260507165256 60 185 0.0 0.0 0.00 0.00 0.00 52 1009.4
20260507164756 60 217 0.0 0.0 0.00 0.00 0.00 52 1009.4
20260507164254 60 157 0.0 0.0 0.00 0.00 0.00 52 1009.5
20260507163755 60 231 0.0 0.0 0.00 0.00 0.00 51 1009.5
20260507163255 60 207 0.0 0.0 0.00 0.00 0.00 50 1009.4
20260507162755 60 223 0.0 0.0 0.00 0.00 0.00 50 1009.5
20260507162258 60 181 0.0 0.0 0.00 0.00 0.00 50 1009.5
20260507161755 60 188 0.0 0.0 0.00 0.00 0.00 50 1009.5
20260507161256 61 260 0.0 0.0 0.00 0.00 0.00 49 1009.4
20260507160752 61 227 0.0 0.0 0.00 0.00 0.00 50 1009.5
20260507160252 61 235 0.0 0.0 0.00 0.00 0.00 48 1009.5
20260507155754 61 242 0.0 0.0 0.00 0.00 0.00 49 1009.5
20260507155252 61 132 0.0 0.0 0.00 0.00 0.00 48 1009.4
20260507154755 61 205 0.0 0.0 0.00 0.00 0.00 51 1009.5
20260507154254 60 184 0.0 0.0 0.00 0.00 0.00 53 1009.5
20260507153750 59 191 0.0 0.0 0.00 0.00 0.00 53 1009.5
20260507153250 59 244 0.0 0.0 0.00 0.00 0.00 53 1009.5
20260507152750 58 239 0.0 0.0 0.00 0.00 0.00 54 1009.5
20260507152246 58 231 0.0 0.0 0.00 0.00 0.00 55 1009.6
20260507151747 58 161 0.0 0.0 0.00 0.00 0.00 55 1009.6
20260507151248 58 258 0.0 0.0 0.00 0.00 0.00 54 1009.8
20260507151032 58 186 0.0 0.0 0.00 0.00 0.00 53 1009.8
20260507150246 58 255 0.0 0.0 0.00 0.00 0.00 53 1009.8
20260507145745 58 196 0.0 0.0 0.00 0.00 0.00 54 1009.8
20260507145246 57 185 0.0 0.0 0.00 0.00 0.00 55 1009.8
20260507145038 57 249 0.0 0.0 0.00 0.00 0.00 55 1009.9
20260507144242 56 165 0.0 0.0 0.00 0.00 0.00 55 1009.8
20260507143742 56 242 0.0 0.0 0.00 0.00 0.00 55 1009.9
20260507143535 56 158 0.0 0.0 0.00 0.00 0.00 55 1009.9
20260507142740 56 223 0.0 0.0 0.00 0.00 0.00 55 1009.9
20260507142241 56 188 0.0 0.0 0.00 0.00 0.00 56 1010.0
20260507141742 55 177 0.0 0.0 0.00 0.00 0.00 56 1009.9
20260507141239 56 168 0.0 0.0 0.00 0.00 0.00 55 1010.0
20260507141029 56 120 0.0 0.0 0.00 0.00 0.00 55 1010.1
20260507140241 56 176 0.0 0.0 0.00 0.00 0.00 56 1010.2
20260507140027 56 209 0.0 0.0 0.00 0.00 0.00 55 1010.2
20260507135233 56 150 0.0 0.9 0.00 0.00 0.00 56 1010.2
20260507134725 56 200 0.0 0.9 0.00 0.00 0.00 56 1010.1
20260507134219 56 209 0.0 0.0 0.00 0.00 0.00 56 1010.1
20260507133713 56 216 0.0 0.0 0.00 0.00 0.00 56 1010.2
20260507133207 56 200 0.0 0.0 0.00 0.00 0.00 55 1010.3
20260507132710 56 218 0.0 0.0 0.00 0.00 0.00 56 1010.2
20260507132206 56 234 0.0 0.0 0.00 0.00 0.00 56 1010.2
20260507131704 56 233 0.0 0.0 0.00 0.00 0.00 56 1010.2
20260507131448 56 219 0.0 0.0 0.00 0.00 0.00 56 1010.1
20260507130702 56 165 0.0 0.0 0.00 0.00 0.00 56 1010.1
20260507130203 56 120 0.0 0.0 0.00 0.00 0.00 56 1010.2
20260507125706 55 214 0.0 0.0 0.00 0.00 0.00 56 1010.2
20260507125203 55 190 0.0 0.0 0.00 0.00 0.00 57 1010.3
20260507124951 55 117 0.0 0.0 0.00 0.00 0.00 57 1010.3
20260507124203 54 92 0.0 0.0 0.00 0.00 0.00 58 1010.3
20260507123704 54 148 0.0 0.0 0.00 0.00 0.00 58 1010.4
20260507123201 53 202 0.0 0.0 0.00 0.00 0.00 58 1010.4
20260507122954 53 266 0.0 0.0 0.00 0.00 0.00 58 1010.4
20260507122204 53 202 0.0 0.0 0.00 0.00 0.00 59 1010.5
20260507121947 53 227 0.0 0.0 0.00 0.00 0.00 59 1010.6
20260507121202 53 223 0.0 0.0 0.00 0.00 0.00 59 1010.6
20260507120704 52 168 0.0 0.0 0.00 0.00 0.00 59 1010.6
20260507120202 52 231 0.0 0.0 0.00 0.00 0.00 59 1010.7
20260507115704 52 212 0.0 0.0 0.00 0.00 0.00 59 1010.7
20260507115204 52 184 0.0 0.0 0.00 0.00 0.00 59 1010.8
20260507114702 52 201 0.0 0.0 0.00 0.00 0.00 59 1010.8
20260507114204 52 191 0.0 0.0 0.00 0.00 0.00 59 1010.8
20260507113702 52 165 0.0 0.0 0.00 0.00 0.00 59 1010.8
20260507113203 52 215 0.0 0.0 0.00 0.00 0.00 59 1010.8
20260507112703 52 62 0.0 0.0 0.00 0.00 0.00 58 1010.8
20260507112447 52 220 0.0 0.0 0.00 0.00 0.00 58 1010.9
20260507111704 52 202 0.0 0.0 0.00 0.00 0.00 58 1010.9
20260507111203 52 219 0.0 0.0 0.00 0.00 0.00 58 1011.0
20260507110702 53 213 0.0 0.0 0.00 0.00 0.00 58 1011.0
20260507110202 53 187 0.0 0.0 0.00 0.00 0.00 58 1011.1
20260507105704 53 163 0.0 0.0 0.00 0.00 0.00 58 1011.2
20260507105204 53 239 0.0 0.0 0.00 0.00 0.00 57 1011.2
20260507104702 53 188 0.0 0.0 0.00 0.00 0.00 57 1011.2
20260507104202 53 184 0.0 0.0 0.00 0.00 0.00 57 1011.1
20260507103704 54 241 0.0 0.0 0.00 0.00 0.00 57 1011.0
20260507103203 54 201 0.0 0.0 0.00 0.00 0.00 57 1011.0
20260507102703 54 220 0.0 0.0 0.00 0.00 0.00 57 1011.0
20260507102203 54 234 0.0 0.0 0.00 0.00 0.00 57 1011.0
20260507101701 54 236 0.0 0.0 0.00 0.00 0.00 57 1011.0
20260507101202 55 252 0.0 0.0 0.00 0.00 0.00 57 1011.0
20260507100942 55 173 0.0 0.0 0.00 0.00 0.00 57 1010.9
20260507100452 55 210 0.0 0.0 0.00 0.00 0.00 57 1010.8
20260507095701 55 164 0.0 0.0 0.00 0.00 0.00 56 1010.8
20260507095204 55 231 0.0 0.0 0.00 0.00 0.00 56 1010.8
20260507094703 55 173 0.0 0.0 0.00 0.00 0.00 56 1010.8
20260507094203 55 209 0.0 0.0 0.00 0.00 0.00 56 1010.8
20260507093702 55 201 0.0 0.0 0.00 0.00 0.00 56 1010.7
20260507093201 55 205 0.0 0.0 0.00 0.00 0.00 56 1010.8
20260507092702 55 245 0.0 0.0 0.00 0.00 0.00 56 1010.7
20260507092204 55 176 0.0 0.0 0.00 0.00 0.00 56 1010.5
20260507091736 55 211 0.0 0.0 0.00 0.00 0.00 56 1010.6
20260507091725 55 207 0.0 0.0 0.00 0.00 0.00 57 1010.6
20260507090704 55 198 0.0 0.0 0.00 0.00 0.00 56 1010.7
20260507090203 56 160 0.0 0.0 0.00 0.00 0.00 56 1010.7
20260507085702 56 242 0.0 0.0 0.00 0.00 0.00 56 1010.6
20260507085202 55 180 0.0 0.0 0.00 0.00 0.00 56 1010.7
20260507084948 56 200 0.0 0.0 0.00 0.00 0.00 56 1010.7
20260507084448 55 206 0.0 0.0 0.00 0.00 0.00 57 1010.7
20260507083703 55 236 0.0 0.0 0.00 0.00 0.00 57 1010.8
20260507083206 55 232 0.0 0.0 0.00 0.00 0.00 57 1010.8
20260507082705 55 209 0.0 0.0 0.00 0.00 0.00 57 1010.8
20260507082202 54 196 0.0 0.0 0.00 0.00 0.00 58 1010.8
20260507081704 54 209 0.0 0.0 0.00 0.00 0.00 58 1010.8
20260507081203 53 231 0.0 0.0 0.00 0.00 0.00 58 1010.9
20260507080703 53 202 0.0 0.0 0.00 0.00 0.00 58 1010.9
20260507080201 53 229 0.0 0.0 0.00 0.00 0.00 58 1010.9
20260507075702 53 155 0.0 0.0 0.00 0.00 0.00 59 1010.9
20260507075203 52 214 0.0 0.0 0.00 0.00 0.00 59 1011.0
20260507074705 51 229 0.0 0.0 0.00 0.00 0.00 60 1011.0
20260507074232 50 174 0.0 0.0 0.00 0.00 0.00 60 1010.9
20260507074224 51 238 0.0 0.0 0.00 0.00 0.00 60 1011.0
20260507073443 49 155 0.0 0.0 0.00 0.00 0.00 60 1011.0
20260507072703 49 220 0.0 0.0 0.00 0.00 0.00 61 1011.0
20260507072203 48 225 0.0 0.0 0.00 0.00 0.00 61 1011.0
20260507071703 48 154 0.0 0.0 0.00 0.00 0.00 61 1010.9
20260507071202 48 215 0.0 0.0 0.00 0.00 0.00 61 1010.9
20260507070703 48 222 0.0 0.0 0.00 0.00 0.00 61 1011.0
20260507070204 48 242 0.0 0.0 0.00 0.00 0.00 61 1010.9
20260507065703 47 236 0.0 0.0 0.00 0.00 0.00 61 1011.0
20260507065203 47 128 0.0 0.0 0.00 0.00 0.00 61 1011.0
20260507064703 47 211 0.0 0.0 0.00 0.00 0.00 62 1010.9
20260507064202 47 248 0.0 0.0 0.00 0.00 0.00 62 1011.0
20260507063703 46 124 0.0 0.0 0.00 0.00 0.00 62 1010.9
20260507063202 46 270 0.0 0.0 0.00 0.00 0.00 62 1010.9
20260507062704 45 209 0.0 0.0 0.00 0.00 0.00 62 1011.0
20260507062202 45 189 0.0 0.0 0.00 0.00 0.00 62 1011.0
20260507061702 45 115 0.0 0.0 0.00 0.00 0.00 62 1011.0
20260507061202 44 240 0.0 0.0 0.00 0.00 0.00 63 1011.0
20260507060704 44 190 0.0 0.0 0.00 0.00 0.00 63 1011.0
20260507060202 44 200 0.0 0.0 0.00 0.00 0.00 63 1011.0
20260507055703 43 180 0.0 0.0 0.00 0.00 0.00 63 1011.0
20260507055202 43 263 0.0 0.0 0.00 0.00 0.00 64 1011.1
20260507054739 42 207 0.0 0.0 0.00 0.00 0.00 64 1011.1
20260507054726 42 226 0.0 0.0 0.00 0.00 0.00 64 1011.1
20260507053945 42 207 0.0 0.0 0.00 0.00 0.00 64 1011.1
20260507053204 42 207 0.0 0.0 0.00 0.00 0.00 64 1011.1
20260507052702 42 207 0.0 0.0 0.00 0.00 0.00 64 1011.1
20260507052202 42 207 0.0 0.0 0.00 0.00 0.00 64 1011.2
20260507051704 42 207 0.0 0.0 0.00 0.00 0.00 65 1011.1
20260507051202 42 207 0.0 0.0 0.00 0.00 0.00 65 1011.2
20260507050703 42 207 0.0 0.0 0.00 0.00 0.00 65 1011.2
20260507050201 42 207 0.0 0.0 0.00 0.00 0.00 66 1011.2
20260507045703 42 207 0.0 0.0 0.00 0.00 0.00 66 1011.2
20260507045204 43 207 0.0 0.0 0.00 0.00 0.00 66 1011.2
20260507044703 43 207 0.0 0.0 0.00 0.00 0.00 66 1011.2
20260507044447 43 207 0.0 0.0 0.00 0.00 0.00 67 1011.2
20260507043703 43 207 0.0 0.0 0.00 0.00 0.00 67 1011.2
20260507043445 43 207 0.0 0.0 0.00 0.00 0.00 67 1011.2
20260507042705 43 207 0.0 0.0 0.00 0.00 0.00 67 1011.2
20260507042204 44 207 0.0 0.0 0.00 0.00 0.00 67 1011.2
20260507041703 44 207 0.0 0.0 0.00 0.00 0.00 67 1011.1
20260507041202 44 207 0.0 0.0 0.00 0.00 0.00 67 1011.1
20260507040703 44 207 0.0 0.0 0.00 0.00 0.00 67 1011.0
20260507040203 44 207 0.0 0.0 0.00 0.00 0.00 67 1011.1
20260507035703 44 207 0.0 0.0 0.00 0.00 0.00 67 1011.0
20260507035201 45 207 0.0 0.0 0.00 0.00 0.00 67 1011.0
20260507034702 45 207 0.0 0.0 0.00 0.00 0.00 67 1011.1
20260507034203 45 207 0.0 0.0 0.00 0.00 0.00 66 1011.2
20260507033943 45 207 0.0 0.0 0.00 0.00 0.00 66 1011.3
20260507033159 45 207 0.0 0.0 0.00 0.00 0.00 66 1011.4
20260507032656 45 207 0.0 0.0 0.00 0.00 0.00 66 1011.4
20260507032153 45 207 0.0 0.0 0.00 0.00 0.00 66 1011.4
20260507031935 45 207 0.0 0.0 0.00 0.00 0.00 66 1011.5
20260507031156 45 207 0.0 0.0 0.00 0.00 0.00 66 1011.4
20260507030652 45 207 0.0 0.0 0.00 0.00 0.00 66 1011.4
20260507030431 45 198 0.0 0.0 0.00 0.00 0.00 66 1011.4
20260507025648 45 238 0.0 0.0 0.00 0.00 0.00 67 1011.5
20260507025149 45 229 0.0 0.0 0.00 0.00 0.00 67 1011.4
20260507024647 45 184 0.0 0.0 0.00 0.00 0.00 67 1011.4
20260507024147 45 184 0.0 0.0 0.00 0.00 0.00 66 1011.4
20260507023643 45 171 0.0 0.0 0.00 0.00 0.00 66 1011.4
20260507023427 45 171 0.0 0.0 0.00 0.00 0.00 66 1011.4
20260507022642 45 171 0.0 0.0 0.00 0.00 0.00 66 1011.4
20260507022424 45 171 0.0 0.0 0.00 0.00 0.00 66 1011.3
20260507021640 45 171 0.0 0.0 0.00 0.00 0.00 66 1011.3
20260507021139 45 171 0.0 0.0 0.00 0.00 0.00 66 1011.3
20260507020637 44 171 0.0 0.0 0.00 0.00 0.00 66 1011.3
20260507020140 44 171 0.0 0.0 0.00 0.00 0.00 66 1011.3
20260507015638 44 173 0.0 0.0 0.00 0.00 0.00 66 1011.4
20260507015138 44 221 0.0 0.0 0.00 0.00 0.00 66 1011.4
20260507014638 44 219 0.0 0.0 0.00 0.00 0.00 67 1011.4
20260507014134 44 221 0.0 0.0 0.00 0.00 0.00 67 1011.4
20260507013633 44 168 0.0 0.0 0.00 0.00 0.00 67 1011.5
20260507013158 43 138 0.0 0.0 0.00 0.00 0.00 67 1011.6
20260507013148 44 138 0.0 0.0 0.00 0.00 0.00 67 1011.6
20260507012132 43 138 0.0 0.0 0.00 0.00 0.00 67 1011.7
20260507011633 43 138 0.0 0.0 0.00 0.00 0.00 67 1011.7
20260507011139 43 151 0.0 0.0 0.00 0.00 0.00 67 1011.8
20260507011132 43 138 0.0 0.0 0.00 0.00 0.00 67 1011.8
20260507010133 43 151 0.0 0.0 0.00 0.00 0.00 67 1011.8
20260507005633 43 151 0.0 0.0 0.00 0.00 0.00 67 1011.8
20260507005132 43 151 0.0 0.0 0.00 0.00 0.00 67 1011.9
20260507004632 43 151 0.0 0.0 0.00 0.00 0.00 67 1011.9
20260507004416 43 153 0.0 0.0 0.00 0.00 0.00 67 1012.0
20260507003632 43 153 0.0 0.0 0.00 0.00 0.00 67 1012.0
20260507003415 43 139 0.0 0.0 0.00 0.00 0.00 67 1012.1
20260507002632 43 158 0.0 0.0 0.00 0.00 0.00 67 1012.1
20260507002131 43 148 0.0 0.0 0.00 0.00 0.00 67 1012.1
20260507001632 43 147 0.0 0.0 0.00 0.00 0.00 67 1012.2
20260507001131 43 146 0.0 0.0 0.00 0.00 0.00 67 1012.2
20260507000631 43 140 0.0 0.0 0.00 0.00 0.00 67 1012.2
20260507000131 43 163 0.0 0.0 0.00 0.00 0.00 67 1012.2
20260506235631 44 146 0.0 0.0 0.00 0.00 0.00 67 1012.2
20260506235133 44 140 0.0 0.0 0.00 0.00 0.00 67 1012.2
20260506234633 44 171 0.0 0.0 0.00 0.00 0.00 67 1012.2
20260506234132 44 163 0.0 0.0 0.00 0.00 0.00 67 1012.3
20260506233632 44 147 0.0 0.0 0.00 0.00 0.00 67 1012.3
20260506233131 44 169 0.0 0.0 0.00 0.00 0.00 67 1012.3